TimeAKDT,TemperatureF,Dew PointF,Humidity,Sea Level PressureIn,VisibilityMPH,Wind Direction,Wind SpeedMPH,Gust SpeedMPH,PrecipitationIn,Events,Conditions,WindDirDegrees,DateUTC
12:19 AM,17.6,12.2,79,29.79,10.0,NNW,10.4,-,N/A,,Overcast,330,2013-05-12 08:19:00
12:53 AM,17.1,10.0,74,29.79,10.0,NNW,12.7,-,N/A,,Overcast,330,2013-05-12 08:53:00
1:53 AM,17.1,9.0,71,29.79,10.0,NW,11.5,-,N/A,,Overcast,320,2013-05-12 09:53:00
2:53 AM,16.0,9.0,74,29.78,10.0,NNW,9.2,-,N/A,,Overcast,330,2013-05-12 10:53:00
3:53 AM,15.1,8.1,74,29.77,10.0,NW,8.1,-,N/A,,Overcast,320,2013-05-12 11:53:00
4:53 AM,15.1,6.1,68,29.76,10.0,WNW,9.2,-,N/A,,Overcast,290,2013-05-12 12:53:00
5:53 AM,15.1,6.1,68,29.75,10.0,WNW,8.1,-,N/A,,Overcast,300,2013-05-12 13:53:00
6:53 AM,15.1,6.1,68,29.74,10.0,WNW,8.1,-,N/A,,Overcast,300,2013-05-12 14:53:00
7:53 AM,15.1,6.1,68,29.74,10.0,NW,8.1,-,N/A,,Overcast,310,2013-05-12 15:53:00
8:07 AM,15.8,6.8,68,29.73,10.0,NW,11.5,-,N/A,,Overcast,310,2013-05-12 16:07:00
8:53 AM,14.0,8.1,77,29.74,10.0,NW,13.8,-,N/A,,Overcast,310,2013-05-12 16:53:00
9:53 AM,14.0,6.1,71,29.74,10.0,WNW,11.5,-,N/A,,Overcast,290,2013-05-12 17:53:00
10:29 AM,14.0,6.8,73,29.74,10.0,West,10.4,-,N/A,,Overcast,280,2013-05-12 18:29:00
10:53 AM,14.0,6.1,71,29.75,10.0,West,8.1,-,N/A,,Overcast,270,2013-05-12 18:53:00
11:53 AM,14.0,7.0,74,29.74,9.0,WNW,9.2,-,0.00,,Overcast,290,2013-05-12 19:53:00
12:45 PM,14.0,8.6,79,29.74,3.0,WSW,9.2,-,0.00,Snow,Light Snow,240,2013-05-12 20:45:00
12:53 PM,15.1,9.0,77,29.74,2.5,West,8.1,-,0.00,Snow,Light Snow,270,2013-05-12 20:53:00
1:00 PM,15.8,8.6,73,29.73,3.0,West,9.2,-,0.00,Snow,Light Snow,270,2013-05-12 21:00:00
1:53 PM,16.0,10.0,77,29.73,5.0,West,9.2,-,0.00,Snow,Light Snow,270,2013-05-12 21:53:00
2:53 PM,16.0,10.0,77,29.73,9.0,West,5.8,-,0.00,Snow,Light Snow,280,2013-05-12 22:53:00
3:53 PM,17.1,10.9,77,29.73,9.0,WNW,8.1,-,0.00,Snow,Light Snow,290,2013-05-12 23:53:00
4:53 PM,18.0,12.9,81,29.72,10.0,NW,11.5,-,0.00,,Overcast,310,2013-05-13 00:53:00
5:15 PM,17.6,12.2,79,29.72,10.0,NNW,12.7,-,N/A,,Overcast,330,2013-05-13 01:15:00
5:53 PM,19.0,14.0,81,29.72,10.0,NW,12.7,-,N/A,,Overcast,310,2013-05-13 01:53:00
6:53 PM,19.9,15.1,81,29.72,10.0,NW,10.4,-,N/A,,Overcast,320,2013-05-13 02:53:00
7:53 PM,21.0,17.1,85,29.71,10.0,NW,12.7,-,N/A,,Overcast,320,2013-05-13 03:53:00
8:53 PM,21.0,17.1,85,29.70,9.0,NNW,18.4,-,N/A,,Overcast,330,2013-05-13 04:53:00
9:42 PM,21.2,17.6,86,29.70,2.5,NNW,17.3,-,N/A,,Overcast,330,2013-05-13 05:42:00
9:53 PM,21.0,17.1,85,29.70,2.0,NNW,18.4,-,N/A,,Overcast,330,2013-05-13 05:53:00
10:18 PM,21.2,17.6,86,29.70,1.0,NNW,20.7,-,0.00,Rain,Light Freezing Rain,330,2013-05-13 06:18:00
10:26 PM,21.2,17.6,86,29.70,3.0,NNW,23.0,-,0.00,Rain,Light Freezing Rain,330,2013-05-13 06:26:00
10:48 PM,21.2,17.6,86,29.70,6.0,NNW,21.9,-,0.00,,Overcast,340,2013-05-13 06:48:00
10:53 PM,21.0,17.1,85,29.70,5.0,NNW,23.0,-,0.00,,Overcast,340,2013-05-13 06:53:00
11:53 PM,19.0,15.1,85,29.72,3.0,NNW,23.0,-,N/A,,Overcast,340,2013-05-13 07:53:00